This is the latest recevied weather packets stored in our database for station/object HP3ICC-16. If no packets are shown the sender has not sent any weather packets the latest 10 day(s).
| Time | Temp. | Humidity | Pressure | Rain* | Wind** | Luminosity | Snow |
|---|---|---|---|---|---|---|---|
| 1777670428 | 27.78° C | 79% | 1006 hPa | 0 mm | - | - | - |
| 1777669288 | 28.33° C | 79% | 1006 hPa | 0.51 mm | - | - | - |
| 1777669227 | 28.33° C | 79% | 1006 hPa | 0.51 mm | - | - | - |
| 1777668087 | 28.89° C | 79% | 1006 hPa | 0 mm | - | - | - |
| 1777668027 | 28.89° C | 79% | 1006 hPa | 0 mm | - | - | - |
| 1777666886 | 29.44° C | 79% | 1007 hPa | 0.51 mm | - | - | - |
| 1777666826 | 29.44° C | 79% | 1007 hPa | 0.51 mm | - | - | - |
| 1777665686 | 26.11° C | 79% | 1007 hPa | 0 mm | - | - | - |
| 1777665626 | 26.11° C | 79% | 1007 hPa | 0 mm | - | - | - |
| 1777664485 | 26.67° C | 79% | 1007 hPa | 0.51 mm | - | - | - |
| 1777664425 | 26.67° C | 79% | 1007 hPa | 0.51 mm | - | - | - |
| 1777663285 | 27.22° C | 79% | 1007 hPa | 0 mm | - | - | - |
| 1777662085 | 27.78° C | 79% | 1007 hPa | 0.25 mm | - | - | - |
| 1777662024 | 27.78° C | 79% | 1007 hPa | 0.25 mm | - | - | - |
| 1777660884 | 28.33° C | 79% | 1007 hPa | 0 mm | - | - | - |
| 1777660824 | 28.33° C | 79% | 1007 hPa | 0 mm | - | - | - |
| 1777659683 | 28.33° C | 79% | 1008 hPa | 0 mm | - | - | - |
| 1777659623 | 28.33° C | 79% | 1008 hPa | 0 mm | - | - | - |
| 1777658483 | 27.78° C | 83% | 1008 hPa | 0.25 mm | - | - | - |
| 1777658423 | 27.78° C | 83% | 1008 hPa | 0.25 mm | - | - | - |
| 1777657282 | 27.78° C | 83% | 1008 hPa | 0.25 mm | - | - | - |
| 1777657222 | 27.78° C | 83% | 1008 hPa | 0.25 mm | - | - | - |
| 1777656082 | 27.78° C | 83% | 1009 hPa | 0.51 mm | - | - | - |
| 1777656022 | 27.78° C | 83% | 1009 hPa | 0.51 mm | - | - | - |
| 1777654881 | 28.89° C | 79% | 1009 hPa | 0.76 mm | - | - | - |
* Rain latest hour (hover to see other rain measurements)
** Current wind speed in m/s (hover to see current wind gust speed)